EW4529 Weather Reports


Display with metric or nautical units.
time (UTC)temp
F
wind
direction
speed
MPH
gust
MPH
rain 1hr
in
rain 24hr
in
rain mn
in
humidity
%
barometer
mb
20260507023315 65 306 0.0 0.0 0.06 0.18 0.18 91 1009.1
20260507022311 65 307 0.0 0.0 0.06 0.18 0.18 90 1008.9
20260507021310 66 30 0.0 1.0 0.02 0.14 0.14 87 1009.0
20260507020314 66 175 0.0 0.0 0.00 0.12 0.12 86 1009.0
20260507015317 66 161 0.0 0.0 0.00 0.12 0.12 85 1008.8
20260507014311 66 165 0.0 2.0 0.00 0.12 0.12 85 1008.9
20260507013312 66 180 0.0 4.0 0.00 0.12 0.12 85 1008.8
20260507012310 66 304 0.0 1.0 0.00 0.12 0.12 84 1008.8
20260507011312 66 56 0.0 1.0 0.00 0.12 0.12 84 1008.6
20260507010316 66 18 0.0 3.0 0.00 0.12 0.12 84 1008.7
20260507005338 66 56 0.0 2.0 0.00 0.12 0.12 84 1008.9
20260507004340 66 10 0.0 1.0 0.00 0.12 0.12 84 1008.7
20260507003317 66 165 0.0 1.0 0.00 0.12 0.12 84 1008.3
20260507002320 67 172 0.0 1.0 0.00 0.12 0.12 83 1008.3
20260507001325 67 118 0.0 0.0 0.00 0.12 0.12 83 1008.2
20260507000321 67 118 0.0 1.0 0.00 0.12 0.12 82 1008.1
20260506235322 68 141 0.0 2.0 0.00 0.12 0.12 81 1008.1
20260506234325 68 244 0.0 5.0 0.00 0.12 0.12 80 1008.1
20260506233320 68 27 0.0 3.0 0.00 0.12 0.12 79 1008.0
20260506232325 68 346 0.0 2.0 0.00 0.12 0.12 79 1007.8
20260506231326 68 147 0.0 3.0 0.00 0.12 0.12 78 1007.9
20260506230350 69 72 0.0 5.0 0.00 0.12 0.12 78 1008.0
20260506225310 69 139 0.0 3.0 0.00 0.12 0.12 77 1008.0
20260506224312 69 320 1.0 6.0 0.00 0.12 0.12 77 1007.8
20260506223317 70 3 0.0 4.0 0.00 0.12 0.12 76 1008.0
20260506222341 70 98 0.0 2.0 0.00 0.12 0.12 76 1007.8
20260506221322 70 10 0.0 2.0 0.00 0.12 0.12 77 1007.8
20260506220340 70 108 0.0 3.0 0.00 0.12 0.12 77 1007.9
20260506215322 70 295 1.0 4.0 0.00 0.12 0.12 76 1007.7
20260506214323 70 103 1.0 8.0 0.00 0.12 0.12 76 1007.6
20260506213315 70 360 1.0 4.0 0.00 0.12 0.12 77 1007.7
20260506212311 69 152 0.0 5.0 0.00 0.12 0.12 78 1007.6
20260506211315 69 129 1.0 5.0 0.00 0.12 0.12 78 1007.5
20260506210310 69 122 1.0 4.0 0.00 0.12 0.12 78 1007.5
20260506205311 69 137 2.0 7.0 0.00 0.12 0.12 78 1007.5
20260506204314 69 134 0.0 2.0 0.00 0.12 0.12 78 1007.4
20260506203340 68 356 2.0 7.0 0.00 0.12 0.12 79 1007.2
20260506202340 68 172 1.0 8.0 0.00 0.12 0.12 78 1007.3
20260506201343 68 217 0.0 6.0 0.00 0.12 0.12 81 1007.3
20260506200320 67 64 2.0 6.0 0.00 0.12 0.12 81 1007.4
20260506195325 67 140 0.0 4.0 0.00 0.12 0.12 82 1007.6
20260506194324 66 258 0.0 4.0 0.00 0.12 0.12 83 1007.7
20260506193319 66 84 1.0 8.0 0.00 0.12 0.12 84 1007.8
20260506192317 65 212 0.0 4.0 0.00 0.12 0.12 85 1008.0
20260506191319 65 320 1.0 4.0 0.00 0.12 0.12 85 1008.0
20260506190315 65 275 2.0 7.0 0.00 0.12 0.12 85 1008.1
20260506185316 64 311 1.0 4.0 0.00 0.12 0.12 86 1008.0
20260506184316 64 127 1.0 5.0 0.00 0.12 0.12 87 1008.1
20260506183338 64 290 0.0 6.0 0.00 0.12 0.12 87 1008.3
20260506182314 64 249 1.0 11.0 0.00 0.12 0.12 88 1008.3
20260506181317 64 132 1.0 7.0 0.00 0.12 0.12 88 1008.3
20260506180337 63 131 1.0 11.0 0.00 0.12 0.12 88 1008.4
20260506175319 63 274 3.0 13.0 0.00 0.12 0.12 88 1008.4
20260506174320 63 32 1.0 8.0 0.01 0.12 0.12 89 1008.4
20260506173315 63 340 1.0 11.0 0.01 0.12 0.12 89 1008.5
20260506172321 63 346 1.0 6.0 0.02 0.12 0.12 88 1008.5
20260506171321 63 285 1.0 9.0 0.03 0.12 0.12 88 1008.7
20260506170316 64 157 1.0 8.0 0.05 0.12 0.12 89 1008.7
20260506165320 64 135 1.0 7.0 0.06 0.12 0.12 88 1008.7
20260506164313 65 102 1.0 8.0 0.06 0.11 0.11 90 1008.6
20260506163315 64 222 1.0 4.0 0.07 0.11 0.11 91 1008.8
20260506162312 63 112 1.0 4.0 0.08 0.10 0.10 90 1009.1
20260506161330 63 127 2.0 8.0 0.08 0.09 0.09 89 1009.5
20260506160322 63 290 0.0 4.0 0.07 0.07 0.07 88 1009.9
20260506155340 64 336 0.0 1.0 0.06 0.06 0.06 88 1010.0
20260506154321 64 139 0.0 4.0 0.05 0.05 0.05 86 1010.1
20260506153327 64 108 1.0 5.0 0.04 0.04 0.04 85 1010.1
20260506152322 65 142 0.0 6.0 0.02 0.02 0.02 83 1009.9
20260506151322 65 270 2.0 7.0 0.01 0.01 0.01 79 1009.9
20260506150319 66 174 0.0 4.0 0.00 0.00 0.00 77 1009.9
20260506145327 67 316 1.0 7.0 0.00 0.00 0.00 77 1009.7
20260506144318 67 167 0.0 5.0 0.00 0.00 0.00 77 1010.0
20260506143314 67 269 2.0 7.0 0.00 0.00 0.00 72 1010.1
20260506142333 68 98 1.0 5.0 0.00 0.00 0.00 70 1010.0
20260506141309 69 222 1.0 6.0 0.00 0.00 0.00 68 1009.9
20260506140320 69 133 2.0 7.0 0.00 0.00 0.00 66 1009.9
20260506135344 69 89 2.0 10.0 0.00 0.00 0.00 68 1009.8
20260506134316 68 220 2.0 8.0 0.00 0.00 0.00 69 1009.7
20260506133326 67 134 1.0 8.0 0.00 0.00 0.00 71 1009.8
20260506132323 67 108 1.0 6.0 0.00 0.00 0.00 71 1009.8
20260506131319 67 323 1.0 6.0 0.00 0.00 0.00 72 1009.8
20260506130339 67 357 1.0 9.0 0.00 0.00 0.00 72 1010.0
20260506125334 67 340 3.0 9.0 0.00 0.00 0.00 72 1010.2
20260506124311 67 133 1.0 9.0 0.00 0.00 0.00 72 1009.9
20260506123322 67 35 1.0 10.0 0.00 0.00 0.00 73 1009.9
20260506122319 67 135 2.0 11.0 0.00 0.00 0.00 74 1009.8
20260506121315 66 328 1.0 8.0 0.00 0.00 0.00 75 1009.8
20260506120333 66 5 2.0 8.0 0.00 0.00 0.00 75 1009.8
20260506115328 65 144 2.0 8.0 0.00 0.00 0.00 77 1009.8
20260506114347 65 323 1.0 7.0 0.00 0.00 0.00 78 1009.7
20260506113316 64 225 1.0 12.0 0.00 0.00 0.00 78 1009.8
20260506112313 64 193 1.0 7.0 0.00 0.00 0.00 79 1009.8
20260506111310 64 328 2.0 6.0 0.00 0.00 0.00 79 1009.8
20260506110311 64 130 2.0 9.0 0.00 0.00 0.00 80 1009.8
20260506105344 64 313 1.0 8.0 0.00 0.00 0.00 80 1009.7
20260506104323 64 27 1.0 4.0 0.00 0.00 0.00 81 1009.7
20260506103318 64 318 1.0 9.0 0.00 0.00 0.00 81 1009.6
20260506102315 63 122 0.0 7.0 0.00 0.00 0.00 81 1009.7
20260506101315 63 352 1.0 8.0 0.00 0.00 0.00 82 1009.6
20260506100311 63 354 1.0 10.0 0.00 0.00 0.00 82 1009.7
20260506095310 63 143 0.0 6.0 0.00 0.00 0.00 81 1009.8
20260506094330 63 77 1.0 5.0 0.00 0.00 0.00 81 1009.7
20260506093313 64 148 3.0 6.0 0.00 0.00 0.00 81 1009.6
20260506092332 64 131 0.0 5.0 0.00 0.00 0.00 80 1009.6
20260506091347 64 236 2.0 7.0 0.00 0.00 0.00 80 1009.6
20260506090322 64 324 0.0 5.0 0.00 0.00 0.00 79 1009.7